GW2624 Weather Reports


time (UTC)temp
F
wind
direction
speed
knots
gust
knots
rain 1hr
in
rain 24hr
in
rain mn
in
humidity
%
barometer
mb
20260904061905 65 171 0.0 0.0 0.00 0.00 0.00 64 1006.2
20260904060905 65 171 0.0 0.9 0.00 0.00 0.00 64 1006.3
20260904060405 65 171 0.0 0.9 0.00 0.00 0.00 63 1006.2
20260904054905 66 171 0.0 0.0 0.00 0.00 0.00 62 1006.3
20260904054405 66 171 0.0 0.0 0.00 0.00 0.00 61 1006.4
20260904051404 66 171 0.0 0.0 0.00 0.00 0.00 57 1006.5
20260904050405 66 171 0.0 0.9 0.00 0.00 0.00 58 1006.5
20260904045905 66 146 0.0 2.6 0.00 0.00 0.00 57 1006.5
20260904045405 66 146 0.0 2.6 0.00 0.00 0.00 57 1006.5
20260904044905 66 144 0.9 2.6 0.00 0.00 0.00 57 1006.4
20260904044405 66 142 1.7 2.6 0.00 0.00 0.00 58 1006.5
20260904043404 66 124 0.0 1.7 0.00 0.00 0.00 60 1006.5
20260904040905 66 67 0.0 1.7 0.00 0.00 0.00 57 1006.6
20260904040404 66 109 0.0 1.7 0.00 0.00 0.00 58 1006.7
20260904034405 67 110 0.0 1.7 0.00 0.00 0.00 58 1006.9
20260904033905 68 46 0.0 0.9 0.00 0.00 0.00 56 1006.8
20260904033405 68 46 0.0 0.0 0.00 0.00 0.00 55 1006.8
20260904031905 70 46 0.0 0.0 0.00 0.00 0.00 51 1006.8
20260904031405 70 46 0.0 0.0 0.00 0.00 0.00 51 1006.8
20260904030905 71 46 0.0 0.0 0.00 0.00 0.00 50 1006.8
20260904030405 72 46 0.0 0.0 0.00 0.00 0.00 49 1006.7
20260904024904 73 46 0.0 2.6 0.00 0.00 0.00 46 1006.5
20260904022905 76 66 0.0 7.0 0.00 0.00 0.00 42 1006.1
20260904022405 76 30 2.6 7.0 0.00 0.00 0.00 40 1005.9
20260904014405 78 204 1.7 4.3 0.00 0.00 0.00 36 1005.2
20260904013905 78 236 0.9 4.3 0.00 0.00 0.00 35 1005.1
20260904013405 78 141 0.9 4.3 0.00 0.00 0.00 36 1005.0
20260904012905 78 141 0.0 5.2 0.00 0.00 0.00 35 1005.0
20260904011905 79 144 0.9 4.3 0.00 0.00 0.00 34 1005.0
20260904010405 79 207 0.9 4.3 0.00 0.00 0.00 34 1004.9
20260904005904 79 243 1.7 5.2 0.00 0.00 0.00 33 1004.9
20260904004405 80 206 0.9 4.3 0.00 0.00 0.00 33 1004.8
20260904002404 81 197 1.7 7.8 0.00 0.00 0.00 31 1004.7
20260904000405 83 202 2.6 7.0 0.00 0.00 0.00 31 1004.7
20260903234405 84 164 2.6 7.0 0.00 0.00 0.00 30 1004.6
20260903233905 84 162 1.7 8.7 0.00 0.00 0.00 30 1004.6
20260903232405 84 231 0.9 8.7 0.00 0.00 0.00 29 1004.6
20260903231904 84 225 2.6 8.7 0.00 0.00 0.00 29 1004.7
20260903225405 85 184 2.6 7.8 0.00 0.00 0.00 29 1004.7
20260903224405 85 202 2.6 7.8 0.00 0.00 0.00 29 1004.9
20260903223905 85 196 3.5 7.8 0.00 0.00 0.00 28 1004.9
20260903221404 86 258 4.3 7.8 0.00 0.00 0.00 28 1005.0
20260903220405 85 237 2.6 5.2 0.00 0.00 0.00 28 1005.1
20260903214404 84 242 1.7 7.0 0.00 0.00 0.00 29 1005.3
20260903213905 84 227 1.7 5.2 0.00 0.00 0.00 28 1005.5
20260903212904 85 226 0.9 5.2 0.00 0.00 0.00 29 1005.6
20260903211904 85 205 2.6 10.4 0.00 0.00 0.00 27 1005.6
20260903205905 85 181 2.6 7.8 0.00 0.00 0.00 27 1006.0
20260903205405 86 204 4.3 7.8 0.00 0.00 0.00 28 1006.0
20260903204905 85 45 1.7 7.8 0.00 0.00 0.00 29 1006.0
20260903203404 84 144 3.5 10.4 0.00 0.00 0.00 30 1006.1
20260903202405 84 161 3.5 10.4 0.00 0.00 0.00 30 1006.2
20260903195404 84 263 3.5 6.1 0.00 0.00 0.00 29 1006.8
20260903193404 84 34 0.9 6.1 0.00 0.00 0.00 32 1007.1
20260903191904 83 246 1.7 5.2 0.00 0.00 0.00 30 1007.4
20260903190905 83 280 1.7 5.2 0.00 0.00 0.00 32 1007.7
20260903190405 83 11 0.9 7.0 0.00 0.00 0.00 32 1007.8
20260903185904 84 181 2.6 7.0 0.00 0.00 0.00 29 1008.0
20260903184904 84 211 0.9 5.2 0.00 0.00 0.00 33 1008.3
20260903183905 83 208 1.7 5.2 0.00 0.00 0.00 32 1008.3
20260903183405 83 243 0.9 5.2 0.00 0.00 0.00 31 1008.4
20260903182905 82 74 0.0 4.3 0.00 0.00 0.00 33 1008.5
20260903181905 81 253 1.7 2.6 0.00 0.00 0.00 33 1008.6
20260903180905 82 90 0.9 2.6 0.00 0.00 0.00 34 1008.8
20260903175905 82 241 1.7 4.3 0.00 0.00 0.00 31 1008.8
20260903174405 81 300 0.9 2.6 0.00 0.00 0.00 34 1009.0
20260903173404 80 98 1.7 2.6 0.00 0.00 0.00 33 1009.0
20260903172904 80 246 1.7 2.6 0.00 0.00 0.00 35 1009.1
20260903170904 78 50 0.9 2.6 0.00 0.00 0.00 38 1009.0
20260903164904 77 319 0.9 5.2 0.00 0.00 0.00 42 1009.1
20260903163404 76 292 1.7 6.1 0.00 0.00 0.00 45 1009.0
20260903161904 76 146 1.7 5.2 0.00 0.00 0.00 45 1009.0
20260903160905 75 282 0.9 5.2 0.00 0.00 0.00 46 1009.0
20260903160404 74 220 1.7 2.6 0.00 0.00 0.00 46 1008.9
20260903155905 74 311 0.9 2.6 0.00 0.00 0.00 46 1008.9
20260903152905 70 228 0.9 2.6 0.00 0.00 0.00 53 1009.2
20260903151905 68 272 0.9 2.6 0.00 0.00 0.00 54 1009.3
20260903150404 66 247 0.9 2.6 0.00 0.00 0.00 54 1009.3
20260903145905 66 227 0.0 1.7 0.00 0.00 0.00 56 1009.4
20260903143904 63 207 0.0 1.7 0.00 0.00 0.00 61 1009.4
20260903142904 61 141 0.0 0.0 0.00 0.00 0.00 66 1009.4
20260903141404 58 141 0.0 0.0 0.00 0.00 0.00 73 1009.3
20260903140904 57 141 0.0 0.0 0.00 0.00 0.00 76 1009.3
20260903135905 55 141 0.0 0.0 0.00 0.00 0.00 79 1009.4
20260903135405 54 141 0.0 0.0 0.00 0.00 0.00 80 1009.4
20260903134904 54 141 0.0 0.0 0.00 0.00 0.00 81 1009.3
20260903133905 53 18 0.0 0.9 0.00 0.00 0.00 81 1009.4
20260903131905 52 141 0.0 0.0 0.00 0.00 0.00 80 1009.3
20260903131405 52 141 0.0 0.0 0.00 0.00 0.00 80 1009.2
20260903130404 52 141 0.0 0.0 0.00 0.00 0.00 79 1009.0
20260903125404 52 141 0.0 0.0 0.00 0.00 0.00 79 1008.9
20260903124904 52 141 0.0 0.9 0.00 0.00 0.00 79 1008.9
20260903124404 52 141 0.0 0.9 0.00 0.00 0.00 78 1008.8
20260903123404 52 141 0.0 0.0 0.00 0.00 0.00 78 1008.7
20260903121905 52 141 0.0 0.0 0.00 0.00 0.00 77 1008.6
20260903121405 52 141 0.0 0.0 0.00 0.00 0.00 77 1008.6
20260903120904 52 141 0.0 0.0 0.00 0.00 0.00 77 1008.5
20260903112905 53 141 0.0 1.7 0.00 0.00 0.00 73 1008.6
20260903111405 54 141 0.0 0.9 0.00 0.00 0.00 72 1008.4
20260903110905 54 0 0.0 0.9 0.00 0.00 0.00 72 1008.4
20260903110404 54 0 0.0 0.9 0.00 0.00 0.00 71 1008.4
20260903105905 54 0 0.0 0.0 0.00 0.00 0.00 70 1008.3
20260903104404 55 0 0.0 1.7 0.00 0.00 0.00 69 1008.3
20260903103404 55 0 0.0 1.7 0.00 0.00 0.00 67 1008.3
20260903102904 55 0 0.0 0.9 0.00 0.00 0.00 67 1008.2
20260903101905 56 0 0.9 1.7 0.00 0.00 0.00 64 1008.1
20260903100904 56 0 0.0 1.7 0.00 0.00 0.00 62 1008.0
20260903100405 56 0 0.9 2.6 0.00 0.00 0.00 61 1007.9
20260903095404 56 0 0.9 2.6 0.00 0.00 0.00 62 1007.8
20260903094904 56 0 0.9 2.6 0.00 0.00 0.00 62 1007.7
20260903094405 56 0 1.7 2.6 0.00 0.00 0.00 61 1007.8
20260903093905 56 0 0.9 2.6 0.00 0.00 0.00 62 1007.8
20260903093404 56 0 0.0 2.6 0.00 0.00 0.00 62 1007.8
20260903091405 56 0 0.0 0.9 0.00 0.00 0.00 62 1007.8
20260903090905 56 0 0.0 2.6 0.00 0.00 0.00 63 1007.9
20260903085904 57 0 0.9 2.6 0.00 0.00 0.00 63 1007.8
20260903084405 58 0 0.0 0.9 0.00 0.00 0.00 61 1007.8
20260903083905 58 0 0.0 0.9 0.00 0.00 0.00 61 1007.9
20260903082404 59 0 0.9 1.7 0.00 0.00 0.00 54 1007.8
20260903081905 59 0 0.9 0.9 0.00 0.00 0.00 54 1007.8
20260903080904 59 0 0.0 0.9 0.00 0.00 0.00 54 1007.9
20260903080405 59 0 0.0 1.7 0.00 0.00 0.00 55 1007.8
20260903074904 59 0 0.9 2.6 0.00 0.00 0.00 57 1007.7
20260903073905 59 0 0.0 2.6 0.00 0.00 0.00 56 1007.7
20260903072904 60 0 0.0 2.6 0.00 0.00 0.00 57 1007.8
20260903071905 60 0 0.0 1.7 0.00 0.00 0.00 54 1007.8
20260903071404 61 0 0.0 2.6 0.00 0.00 0.00 54 1007.8
20260903070405 61 0 0.0 2.6 0.00 0.00 0.00 53 1007.9
20260903065405 61 0 0.9 2.6 0.00 0.00 0.00 50 1007.8
20260903064404 61 0 1.7 2.6 0.00 0.00 0.00 54 1007.7
20260903063904 61 0 0.9 2.6 0.00 0.00 0.00 54 1007.7
20260903063404 61 0 0.0 1.7 0.00 0.00 0.00 52 1007.7
20260903062404 62 138 0.0 2.6 0.00 0.00 0.00 52 1007.8